Time,TemperatureF,DewpointF,PressureIn,WindDirection,WindDirectionDegrees,WindSpeedMPH,WindSpeedGustMPH,Humidity,HourlyPrecipIn,Conditions,Clouds,dailyrainin,SoftwareType,DateUTC
2013-02-17 00:00:00,32.5,30.4,30.01,NW,325,0.0,0.0,92,0.00,,FEW085,0.01,VWS V14.01,2013-02-17 05:00:00,
2013-02-17 00:05:00,32.4,30.3,30.01,NW,325,0.0,0.0,92,0.00,,CLR,0.00,VWS V14.01,2013-02-17 05:05:00,
2013-02-17 00:10:00,32.3,30.0,30.01,NW,325,0.0,0.0,91,0.00,,CLR,0.00,VWS V14.01,2013-02-17 05:10:00,
2013-02-17 00:15:00,32.1,29.8,30.01,NW,325,0.0,0.0,91,0.00,,CLR,0.00,VWS V14.01,2013-02-17 05:15:00,
2013-02-17 00:25:00,31.9,29.3,30.01,NW,325,0.0,0.0,90,0.00,,CLR,0.00,VWS V14.01,2013-02-17 05:25:00,
2013-02-17 00:30:00,31.9,29.3,30.01,NW,325,1.0,2.0,90,0.00,,CLR,0.00,VWS V14.01,2013-02-17 05:30:00,
2013-02-17 00:35:00,32.1,29.0,30.01,WNW,299,0.0,5.0,88,0.00,,CLR,0.00,VWS V14.01,2013-02-17 05:35:00,
2013-02-17 00:45:00,32.2,28.5,30.02,WNW,298,0.0,5.0,86,0.00,,CLR,0.00,VWS V14.01,2013-02-17 05:45:00,
2013-02-17 00:50:00,32.1,28.1,30.02,WNW,299,1.0,1.0,85,0.00,,CLR,0.00,VWS V14.01,2013-02-17 05:50:00,
2013-02-17 01:00:00,32.0,27.7,30.02,WNW,299,0.0,1.0,84,0.00,,CLR,0.00,VWS V14.01,2013-02-17 06:00:00,
2013-02-17 01:05:00,31.9,27.6,30.02,WNW,299,0.0,1.0,84,0.00,,CLR,0.00,VWS V14.01,2013-02-17 06:05:00,
2013-02-17 01:15:00,31.9,27.3,30.03,WNW,294,0.0,1.0,83,0.00,,CLR,0.00,VWS V14.01,2013-02-17 06:15:00,
2013-02-17 01:20:00,31.8,26.9,30.03,SW,225,0.0,2.0,82,0.00,,CLR,0.00,VWS V14.01,2013-02-17 06:20:00,
2013-02-17 01:25:00,31.8,26.9,30.03,SW,225,0.0,2.0,82,0.00,,CLR,0.00,VWS V14.01,2013-02-17 06:25:00,
2013-02-17 01:30:00,31.8,26.9,30.03,WSW,241,0.0,1.0,82,0.00,,CLR,0.00,VWS V14.01,2013-02-17 06:30:00,
2013-02-17 01:40:00,31.7,26.8,30.04,WSW,241,0.0,1.0,82,0.00,,CLR,0.00,VWS V14.01,2013-02-17 06:40:00,
2013-02-17 01:45:00,31.6,26.8,30.04,WNW,302,0.0,0.0,82,0.00,,CLR,0.00,VWS V14.01,2013-02-17 06:45:00,
2013-02-17 01:55:00,31.5,26.6,30.04,West,263,0.0,1.0,82,0.00,,CLR,0.00,VWS V14.01,2013-02-17 06:55:00,
2013-02-17 02:00:00,31.4,26.5,30.04,West,268,0.0,0.0,82,0.00,,CLR,0.00,VWS V14.01,2013-02-17 07:00:00,
2013-02-17 02:05:00,31.3,26.2,30.04,WNW,296,0.0,2.0,81,0.00,,CLR,0.00,VWS V14.01,2013-02-17 07:05:00,
2013-02-17 02:15:00,31.2,26.1,30.04,WNW,295,0.0,2.0,81,0.00,,CLR,0.00,VWS V14.01,2013-02-17 07:15:00,
2013-02-17 02:27:00,30.9,25.8,30.04,WNW,295,0.0,2.0,81,0.00,,CLR,0.00,VWS V14.01,2013-02-17 07:27:00,
2013-02-17 02:30:00,29.9,25.1,30.05,WNW,297,0.0,2.0,82,0.00,,SCT070,0.00,VWS V14.01,2013-02-17 07:30:00,
2013-02-17 02:31:00,30.8,26.0,30.04,WNW,295,0.0,0.0,82,0.00,,CLR,0.00,VWS V14.01,2013-02-17 07:31:00,
2013-02-17 02:36:00,30.7,25.9,30.04,WNW,296,0.0,1.0,82,0.00,,CLR,0.00,VWS V14.01,2013-02-17 07:36:00,
2013-02-17 02:45:00,30.6,25.8,30.05,WNW,297,0.0,1.0,82,0.00,,CLR,0.00,VWS V14.01,2013-02-17 07:45:00,
2013-02-17 02:51:00,30.5,25.7,30.05,WNW,297,0.0,0.0,82,0.00,,CLR,0.00,VWS V14.01,2013-02-17 07:51:00,
2013-02-17 03:00:00,30.3,25.8,30.05,WNW,297,0.0,1.0,83,0.00,,CLR,0.00,VWS V14.01,2013-02-17 08:00:00,
2013-02-17 03:08:00,30.2,25.4,30.05,WNW,296,0.0,1.0,82,0.00,,CLR,0.00,VWS V14.01,2013-02-17 08:08:00,
2013-02-17 03:13:00,30.1,25.3,30.05,WNW,297,0.0,1.0,82,0.00,,CLR,0.00,VWS V14.01,2013-02-17 08:13:00,
2013-02-17 03:15:00,29.4,24.3,30.06,WNW,297,0.0,2.0,81,0.00,,SCT070,0.00,VWS V14.01,2013-02-17 08:15:00,
2013-02-17 03:18:00,30.1,25.3,30.05,WNW,297,0.0,1.0,82,0.00,,CLR,0.00,VWS V14.01,2013-02-17 08:18:00,
2013-02-17 03:28:00,29.9,25.1,30.05,WNW,296,0.0,1.0,82,0.00,,CLR,0.00,VWS V14.01,2013-02-17 08:28:00,
2013-02-17 03:30:00,29.3,23.9,30.07,WNW,288,0.0,1.0,80,0.00,,SCT070,0.00,VWS V14.01,2013-02-17 08:30:00,
2013-02-17 03:33:00,29.9,25.1,30.05,WNW,298,0.0,0.0,82,0.00,,CLR,0.00,VWS V14.01,2013-02-17 08:33:00,
2013-02-17 03:43:00,29.6,24.8,30.05,WNW,298,0.0,1.0,82,0.00,,CLR,0.00,VWS V14.01,2013-02-17 08:43:00,
2013-02-17 03:45:00,29.3,23.6,30.07,WNW,288,0.0,1.0,79,0.00,,SCT070,0.00,VWS V14.01,2013-02-17 08:45:00,
2013-02-17 03:48:00,29.5,24.4,30.05,WNW,296,0.0,1.0,81,0.00,,CLR,0.00,VWS V14.01,2013-02-17 08:48:00,
2013-02-17 03:53:00,29.4,24.6,30.06,WNW,296,0.0,1.0,82,0.00,,CLR,0.00,VWS V14.01,2013-02-17 08:53:00,
2013-02-17 04:00:00,29.4,24.6,30.06,WNW,296,0.0,1.0,82,0.00,,CLR,0.00,VWS V14.01,2013-02-17 09:00:00,
2013-02-17 04:08:00,29.4,24.3,30.06,WNW,297,0.0,2.0,81,0.00,,CLR,0.00,VWS V14.01,2013-02-17 09:08:00,
2013-02-17 04:15:00,29.4,24.3,30.06,WNW,297,0.0,2.0,81,0.00,,CLR,0.00,VWS V14.01,2013-02-17 09:15:00,
2013-02-17 04:23:00,29.3,24.2,30.07,WNW,300,0.0,1.0,81,0.00,,CLR,0.00,VWS V14.01,2013-02-17 09:23:00,
2013-02-17 04:30:00,29.3,23.9,30.07,WNW,288,0.0,1.0,80,0.00,,CLR,0.00,VWS V14.01,2013-02-17 09:30:00,
2013-02-17 04:38:00,29.3,23.6,30.07,WNW,288,0.0,1.0,79,0.00,,CLR,0.00,VWS V14.01,2013-02-17 09:38:00,
2013-02-17 04:45:00,29.3,23.6,30.07,WNW,288,0.0,1.0,79,0.00,,CLR,0.00,VWS V14.01,2013-02-17 09:45:00,
2013-02-17 04:53:00,29.1,23.4,30.08,WSW,257,0.0,1.0,79,0.00,,CLR,0.00,VWS V14.01,2013-02-17 09:53:00,
2013-02-17 04:58:00,29.0,23.3,30.08,WSW,255,0.0,1.0,79,0.00,,CLR,0.00,VWS V14.01,2013-02-17 09:58:00,
2013-02-17 05:00:00,28.7,22.7,30.09,WNW,300,0.0,1.0,78,0.00,,SCT070,0.00,VWS V14.01,2013-02-17 10:00:00,
2013-02-17 05:03:00,28.9,23.2,30.08,WSW,254,0.0,0.0,79,0.00,,CLR,0.00,VWS V14.01,2013-02-17 10:03:00,
2013-02-17 05:13:00,28.8,23.1,30.08,WSW,255,0.0,1.0,79,0.00,,CLR,0.00,VWS V14.01,2013-02-17 10:13:00,
2013-02-17 05:15:00,28.8,22.5,30.10,NW,321,0.0,4.0,77,0.00,,SCT070,0.00,VWS V14.01,2013-02-17 10:15:00,
2013-02-17 05:18:00,28.8,23.1,30.08,WSW,255,0.0,0.0,79,0.00,,CLR,0.00,VWS V14.01,2013-02-17 10:18:00,
2013-02-17 05:28:00,28.8,23.1,30.08,WNW,290,0.0,1.0,79,0.00,,CLR,0.00,VWS V14.01,2013-02-17 10:28:00,
2013-02-17 05:30:00,28.8,22.2,30.11,NW,321,0.0,2.0,76,0.00,,SCT070,0.00,VWS V14.01,2013-02-17 10:30:00,
2013-02-17 05:33:00,28.9,23.2,30.08,WNW,292,0.0,1.0,79,0.00,,CLR,0.00,VWS V14.01,2013-02-17 10:33:00,
2013-02-17 05:38:00,28.8,23.1,30.09,WNW,292,0.0,1.0,79,0.00,,CLR,0.00,VWS V14.01,2013-02-17 10:38:00,
2013-02-17 05:43:00,28.8,23.1,30.09,WNW,292,0.0,2.0,79,0.00,,CLR,0.00,VWS V14.01,2013-02-17 10:43:00,
2013-02-17 05:45:00,28.7,22.1,30.12,NW,321,0.0,1.0,76,0.00,,SCT070,0.00,VWS V14.01,2013-02-17 10:45:00,
2013-02-17 05:53:00,28.7,23.0,30.09,WNW,293,0.0,1.0,79,0.00,,CLR,0.00,VWS V14.01,2013-02-17 10:53:00,
2013-02-17 05:58:00,28.7,22.7,30.09,WNW,299,0.0,1.0,78,0.00,,CLR,0.00,VWS V14.01,2013-02-17 10:58:00,
2013-02-17 06:00:00,28.7,22.1,30.13,NW,307,2.0,5.0,76,0.00,,SCT070,0.00,VWS V14.01,2013-02-17 11:00:00,
2013-02-17 06:03:00,28.7,22.7,30.09,WNW,299,0.0,0.0,78,0.00,,CLR,0.00,VWS V14.01,2013-02-17 11:03:00,
2013-02-17 06:08:00,28.7,22.7,30.10,WNW,302,0.0,2.0,78,0.00,,CLR,0.00,VWS V14.01,2013-02-17 11:08:00,
2013-02-17 06:13:00,28.7,22.4,30.10,NW,319,0.0,4.0,77,0.00,,CLR,0.00,VWS V14.01,2013-02-17 11:13:00,
2013-02-17 06:15:00,28.8,21.6,30.13,WNW,288,0.0,4.0,74,0.00,,SCT070,0.00,VWS V14.01,2013-02-17 11:15:00,
2013-02-17 06:23:00,28.8,22.5,30.10,NW,319,1.0,2.0,77,0.00,,CLR,0.00,VWS V14.01,2013-02-17 11:23:00,
2013-02-17 06:28:00,28.8,22.5,30.11,NW,321,1.0,2.0,77,0.00,,CLR,0.00,VWS V14.01,2013-02-17 11:28:00,
2013-02-17 06:30:00,28.9,21.4,30.14,NW,313,0.0,5.0,73,0.00,,SCT070,0.00,VWS V14.01,2013-02-17 11:30:00,
2013-02-17 06:38:00,28.7,22.1,30.11,NW,321,0.0,1.0,76,0.00,,CLR,0.00,VWS V14.01,2013-02-17 11:38:00,
2013-02-17 06:43:00,28.7,22.1,30.12,NW,321,0.0,1.0,76,0.00,,CLR,0.00,VWS V14.01,2013-02-17 11:43:00,
2013-02-17 06:45:00,29.1,21.5,30.15,NW,307,0.0,5.0,73,0.00,,SCT070,0.00,VWS V14.01,2013-02-17 11:45:00,
2013-02-17 06:53:00,28.7,21.8,30.12,NNW,327,2.0,5.0,75,0.00,,CLR,0.00,VWS V14.01,2013-02-17 11:53:00,
2013-02-17 06:58:00,28.7,21.8,30.13,NW,307,0.0,5.0,75,0.00,,CLR,0.00,VWS V14.01,2013-02-17 11:58:00,
2013-02-17 07:00:00,29.4,21.2,30.16,NW,315,0.0,4.0,71,0.00,,SCT070,0.00,VWS V14.01,2013-02-17 12:00:00,
2013-02-17 07:08:00,28.7,21.8,30.13,NW,322,1.0,2.0,75,0.00,,CLR,0.00,VWS V14.01,2013-02-17 12:08:00,
2013-02-17 07:15:00,28.8,21.6,30.13,WNW,288,0.0,4.0,74,0.00,,CLR,0.00,VWS V14.01,2013-02-17 12:15:00,
2013-02-17 07:23:00,28.7,21.5,30.14,NW,312,0.0,2.0,74,0.00,,CLR,0.00,VWS V14.01,2013-02-17 12:23:00,
2013-02-17 07:30:00,28.9,21.4,30.14,NW,313,0.0,5.0,73,0.00,,CLR,0.00,VWS V14.01,2013-02-17 12:30:00,
2013-02-17 07:38:00,28.9,21.4,30.14,NW,307,0.0,5.0,73,0.00,,CLR,0.00,VWS V14.01,2013-02-17 12:38:00,
2013-02-17 07:45:00,29.1,21.5,30.15,NW,307,0.0,5.0,73,0.00,,CLR,0.00,VWS V14.01,2013-02-17 12:45:00,
2013-02-17 07:53:00,29.2,21.3,30.16,NW,310,0.0,2.0,72,0.00,,CLR,0.00,VWS V14.01,2013-02-17 12:53:00,
2013-02-17 08:00:00,29.4,21.2,30.16,NW,315,0.0,4.0,71,0.00,,CLR,0.00,VWS V14.01,2013-02-17 13:00:00,
2013-02-17 08:08:00,29.7,21.1,30.16,NW,314,0.0,4.0,70,0.00,,CLR,0.00,VWS V14.01,2013-02-17 13:08:00,
2013-02-17 08:15:00,30.0,21.4,30.17,NW,313,0.0,5.0,70,0.00,,CLR,0.00,VWS V14.01,2013-02-17 13:15:00,
2013-02-17 08:22:00,30.3,21.0,30.17,NW,313,0.0,6.0,68,0.00,,CLR,0.00,VWS V14.01,2013-02-17 13:22:00,
2013-02-17 08:27:00,30.6,21.6,30.18,NW,313,0.0,6.0,69,0.00,,CLR,0.00,VWS V14.01,2013-02-17 13:27:00,
2013-02-17 08:30:00,33.9,21.1,30.19,NW,317,3.0,8.0,59,0.00,,SCT070,0.00,VWS V14.01,2013-02-17 13:30:00,
2013-02-17 08:32:00,30.9,21.2,30.18,WNW,302,1.0,4.0,67,0.00,,CLR,0.00,VWS V14.01,2013-02-17 13:32:00,
2013-02-17 08:42:00,31.4,21.4,30.18,ENE,69,0.0,6.0,66,0.00,,CLR,0.00,VWS V14.01,2013-02-17 13:42:00,
2013-02-17 08:45:00,34.4,21.2,30.19,WNW,302,0.0,9.0,58,0.00,,SCT070,0.00,VWS V14.01,2013-02-17 13:45:00,
2013-02-17 08:47:00,31.7,21.3,30.19,NW,315,0.0,4.0,65,0.00,,CLR,0.00,VWS V14.01,2013-02-17 13:47:00,
2013-02-17 08:57:00,32.3,21.5,30.19,NNW,338,0.0,6.0,64,0.00,,CLR,0.00,VWS V14.01,2013-02-17 13:57:00,
2013-02-17 09:00:00,35.1,19.7,30.19,NW,321,2.0,10.0,53,0.00,,SCT070,0.00,VWS V14.01,2013-02-17 14:00:00,
2013-02-17 09:02:00,32.5,20.9,30.19,NW,323,0.0,6.0,62,0.00,,CLR,0.00,VWS V14.01,2013-02-17 14:02:00,
2013-02-17 09:12:00,32.9,21.3,30.19,NNW,340,0.0,8.0,62,0.00,,CLR,0.00,VWS V14.01,2013-02-17 14:12:00,
2013-02-17 09:15:00,35.5,19.2,30.20,NW,312,7.0,9.0,51,0.00,,SCT070,0.00,VWS V14.01,2013-02-17 14:15:00,
2013-02-17 09:22:00,33.6,21.2,30.19,NW,304,5.0,7.0,60,0.00,,CLR,0.00,VWS V14.01,2013-02-17 14:22:00,
2013-02-17 09:27:00,33.8,21.0,30.19,NW,315,0.0,8.0,59,0.00,,CLR,0.00,VWS V14.01,2013-02-17 14:27:00,
2013-02-17 09:30:00,36.2,20.3,30.20,NNW,327,1.0,8.0,52,0.00,,SCT070,0.00,VWS V14.01,2013-02-17 14:30:00,
2013-02-17 09:37:00,34.4,21.6,30.19,NW,309,6.0,7.0,59,0.00,,CLR,0.00,VWS V14.01,2013-02-17 14:37:00,
2013-02-17 09:45:00,34.4,21.2,30.19,WNW,302,0.0,9.0,58,0.00,,CLR,0.00,VWS V14.01,2013-02-17 14:45:00,
2013-02-17 09:52:00,34.9,21.2,30.19,NW,319,0.0,6.0,57,0.00,,CLR,0.00,VWS V14.01,2013-02-17 14:52:00,
2013-02-17 10:00:00,35.1,19.7,30.19,NW,321,2.0,10.0,53,0.00,,CLR,0.00,VWS V14.01,2013-02-17 15:00:00,
2013-02-17 10:07:00,35.2,19.8,30.19,NW,310,8.0,9.0,53,0.00,,CLR,0.00,VWS V14.01,2013-02-17 15:07:00,
2013-02-17 10:15:00,35.5,19.2,30.20,NW,312,7.0,9.0,51,0.00,,CLR,0.00,VWS V14.01,2013-02-17 15:15:00,
2013-02-17 10:22:00,35.8,19.5,30.20,NW,315,0.0,8.0,51,0.00,,CLR,0.00,VWS V14.01,2013-02-17 15:22:00,
2013-02-17 10:30:00,36.2,20.3,30.20,NNW,327,1.0,8.0,52,0.00,,CLR,0.00,VWS V14.01,2013-02-17 15:30:00,
2013-02-17 10:37:00,36.8,20.4,30.20,WNW,299,4.0,6.0,51,0.00,,CLR,0.00,VWS V14.01,2013-02-17 15:37:00,
2013-02-17 10:42:00,36.9,19.1,30.20,SSE,152,0.0,6.0,48,0.00,,CLR,0.00,VWS V14.01,2013-02-17 15:42:00,
2013-02-17 10:45:00,39.9,18.7,30.19,NW,324,0.0,8.0,42,0.00,,SCT070,0.00,VWS V14.01,2013-02-17 15:45:00,
2013-02-17 10:47:00,37.0,19.6,30.20,South,186,0.0,4.0,49,0.00,,CLR,0.00,VWS V14.01,2013-02-17 15:47:00,
2013-02-17 10:57:00,37.8,19.4,30.20,NW,314,0.0,8.0,47,0.00,,CLR,0.00,VWS V14.01,2013-02-17 15:57:00,
2013-02-17 11:00:00,40.5,19.2,30.19,NNW,338,5.0,9.0,42,0.00,,SCT070,0.00,VWS V14.01,2013-02-17 16:00:00,
2013-02-17 11:02:00,38.0,19.1,30.20,NW,318,1.0,6.0,46,0.00,,CLR,0.00,VWS V14.01,2013-02-17 16:02:00,
2013-02-17 11:12:00,38.5,19.0,30.20,WNW,288,5.0,8.0,45,0.00,,CLR,0.00,VWS V14.01,2013-02-17 16:12:00,
2013-02-17 11:15:00,41.0,18.0,30.19,West,279,0.0,7.0,39,0.00,,SCT070,0.00,VWS V14.01,2013-02-17 16:15:00,
2013-02-17 11:17:00,38.7,18.7,30.20,WNW,299,7.0,7.0,44,0.00,,CLR,0.00,VWS V14.01,2013-02-17 16:17:00,
2013-02-17 11:27:00,38.9,17.8,30.19,NNW,327,1.0,9.0,42,0.00,,CLR,0.00,VWS V14.01,2013-02-17 16:27:00,
2013-02-17 11:30:00,41.7,18.6,30.18,NW,314,4.0,9.0,39,0.00,,SCT070,0.00,VWS V14.01,2013-02-17 16:30:00,
2013-02-17 11:32:00,39.0,17.3,30.19,WNW,290,4.0,6.0,41,0.00,,CLR,0.00,VWS V14.01,2013-02-17 16:32:00,
2013-02-17 11:42:00,39.8,18.6,30.20,NNE,22,1.0,8.0,42,0.00,,CLR,0.00,VWS V14.01,2013-02-17 16:42:00,
2013-02-17 11:45:00,41.6,17.9,30.18,West,267,0.0,13.0,38,0.00,,SCT070,0.00,VWS V14.01,2013-02-17 16:45:00,
2013-02-17 11:47:00,40.0,19.3,30.19,NW,325,3.0,9.0,43,0.00,,CLR,0.00,VWS V14.01,2013-02-17 16:47:00,
2013-02-17 11:57:00,40.4,18.6,30.19,NW,316,0.0,9.0,41,0.00,,CLR,0.00,VWS V14.01,2013-02-17 16:57:00,
2013-02-17 12:00:00,41.9,16.9,30.18,WNW,292,1.0,13.0,36,0.00,,SCT070,0.00,VWS V14.01,2013-02-17 17:00:00,
2013-02-17 12:07:00,40.9,19.0,30.19,NNW,331,1.0,6.0,41,0.00,,CLR,0.00,VWS V14.01,2013-02-17 17:07:00,
2013-02-17 12:12:00,40.9,18.5,30.19,WNW,298,1.0,6.0,40,0.00,,CLR,0.00,VWS V14.01,2013-02-17 17:12:00,
2013-02-17 12:15:00,43.3,18.2,30.17,NNW,329,1.0,7.0,36,0.00,,SCT070,0.00,VWS V14.01,2013-02-17 17:15:00,
2013-02-17 12:22:00,41.1,18.0,30.19,NW,321,5.0,9.0,39,0.00,,CLR,0.00,VWS V14.01,2013-02-17 17:22:00,
2013-02-17 12:27:00,41.4,20.0,30.19,North,355,0.0,9.0,42,0.00,,CLR,0.00,VWS V14.01,2013-02-17 17:27:00,
2013-02-17 12:30:00,43.7,19.1,30.17,WSW,258,4.0,9.0,37,0.00,,SCT070,0.00,VWS V14.01,2013-02-17 17:30:00,
2013-02-17 12:37:00,42.0,18.9,30.18,WSW,242,1.0,7.0,39,0.00,,CLR,0.00,VWS V14.01,2013-02-17 17:37:00,
2013-02-17 12:41:00,41.9,16.9,30.18,NW,312,7.0,13.0,36,0.00,,CLR,0.00,VWS V14.01,2013-02-17 17:41:00,
2013-02-17 12:45:00,44.5,18.6,30.16,NW,317,4.0,9.0,35,0.00,,SCT070,0.00,VWS V14.01,2013-02-17 17:45:00,
2013-02-17 12:51:00,41.8,17.5,30.18,NW,306,1.0,10.0,37,0.00,,CLR,0.00,VWS V14.01,2013-02-17 17:51:00,
2013-02-17 13:00:00,41.9,16.9,30.18,WNW,292,1.0,13.0,36,0.00,,CLR,0.00,VWS V14.01,2013-02-17 18:00:00,
2013-02-17 13:06:00,42.4,18.0,30.18,WNW,292,0.0,7.0,37,0.00,,CLR,0.00,VWS V14.01,2013-02-17 18:06:00,
2013-02-17 13:15:00,43.3,18.2,30.17,NNW,329,1.0,7.0,36,0.00,,CLR,0.00,VWS V14.01,2013-02-17 18:15:00,
2013-02-17 13:21:00,43.3,17.5,30.17,NW,307,1.0,9.0,35,0.00,,CLR,0.00,VWS V14.01,2013-02-17 18:21:00,
2013-02-17 13:30:00,43.7,19.1,30.17,WSW,258,4.0,9.0,37,0.00,,CLR,0.00,VWS V14.01,2013-02-17 18:30:00,
2013-02-17 13:36:00,44.3,18.4,30.17,NW,315,5.0,9.0,35,0.00,,CLR,0.00,VWS V14.01,2013-02-17 18:36:00,
2013-02-17 13:41:00,44.4,19.1,30.17,NNW,327,1.0,9.0,36,0.00,,CLR,0.00,VWS V14.01,2013-02-17 18:41:00,
2013-02-17 13:45:00,45.1,17.7,30.15,NNW,333,0.0,9.0,33,0.00,,SCT070,0.00,VWS V14.01,2013-02-17 18:45:00,
2013-02-17 13:46:00,44.6,19.3,30.16,NNW,344,0.0,5.0,36,0.00,,CLR,0.00,VWS V14.01,2013-02-17 18:46:00,
2013-02-17 13:56:00,44.7,18.1,30.16,NNW,332,0.0,8.0,34,0.00,,CLR,0.00,VWS V14.01,2013-02-17 18:56:00,
2013-02-17 14:00:00,45.3,17.9,30.15,WNW,303,0.0,10.0,33,0.00,,SCT070,0.00,VWS V14.01,2013-02-17 19:00:00,
2013-02-17 14:01:00,45.0,18.3,30.16,WNW,285,6.0,7.0,34,0.00,,CLR,0.00,VWS V14.01,2013-02-17 19:01:00,
2013-02-17 14:11:00,44.9,18.2,30.16,North,349,0.0,7.0,34,0.00,,CLR,0.00,VWS V14.01,2013-02-17 19:11:00,
2013-02-17 14:15:00,45.5,19.5,30.15,NNW,346,0.0,9.0,35,0.00,,SCT070,0.00,VWS V14.01,2013-02-17 19:15:00,
2013-02-17 14:21:00,44.6,18.0,30.16,NW,307,0.0,6.0,34,0.00,,CLR,0.00,VWS V14.01,2013-02-17 19:21:00,
2013-02-17 14:26:00,44.9,18.2,30.16,West,279,5.0,9.0,34,0.00,,CLR,0.00,VWS V14.01,2013-02-17 19:26:00,
2013-02-17 14:30:00,44.9,17.6,30.15,NW,304,2.0,8.0,33,0.00,,SCT070,0.00,VWS V14.01,2013-02-17 19:30:00,
2013-02-17 14:31:00,44.9,17.6,30.16,NW,322,3.0,7.0,33,0.00,,CLR,0.00,VWS V14.01,2013-02-17 19:31:00,
2013-02-17 14:41:00,45.2,17.8,30.15,West,272,4.0,7.0,33,0.00,,CLR,0.00,VWS V14.01,2013-02-17 19:41:00,
2013-02-17 14:45:00,44.6,18.0,30.15,NW,305,5.0,8.0,34,0.00,,SCT070,0.00,VWS V14.01,2013-02-17 19:45:00,
2013-02-17 14:46:00,45.1,18.4,30.15,NW,309,6.0,8.0,34,0.00,,CLR,0.00,VWS V14.01,2013-02-17 19:46:00,
2013-02-17 14:56:00,45.2,17.8,30.15,NNW,328,3.0,8.0,33,0.00,,CLR,0.00,VWS V14.01,2013-02-17 19:56:00,
2013-02-17 15:00:00,44.5,17.9,30.15,NW,321,2.0,8.0,34,0.00,,SCT070,0.00,VWS V14.01,2013-02-17 20:00:00,
2013-02-17 15:06:00,45.5,19.5,30.15,SW,227,0.0,5.0,35,0.00,,CLR,0.00,VWS V14.01,2013-02-17 20:06:00,
2013-02-17 15:11:00,45.6,17.5,30.15,NW,311,0.0,9.0,32,0.00,,CLR,0.00,VWS V14.01,2013-02-17 20:11:00,
2013-02-17 15:15:00,45.0,18.3,30.15,NNW,329,1.0,6.0,34,0.00,,SCT070,0.00,VWS V14.01,2013-02-17 20:15:00,
2013-02-17 15:21:00,45.4,17.3,30.15,NW,323,3.0,7.0,32,0.00,,CLR,0.00,VWS V14.01,2013-02-17 20:21:00,
2013-02-17 15:26:00,45.0,16.9,30.15,NW,318,0.0,8.0,32,0.00,,CLR,0.00,VWS V14.01,2013-02-17 20:26:00,
2013-02-17 15:30:00,45.0,17.6,30.15,NW,326,0.0,6.0,33,0.00,,SCT070,0.00,VWS V14.01,2013-02-17 20:30:00,
2013-02-17 15:36:00,44.7,17.4,30.15,NW,321,1.0,8.0,33,0.00,,CLR,0.00,VWS V14.01,2013-02-17 20:36:00,
2013-02-17 15:45:00,44.6,18.0,30.15,NW,305,5.0,8.0,34,0.00,,CLR,0.00,VWS V14.01,2013-02-17 20:45:00,
2013-02-17 15:51:00,44.5,17.2,30.15,SE,144,1.0,8.0,33,0.00,,CLR,0.00,VWS V14.01,2013-02-17 20:51:00,
2013-02-17 16:00:00,44.5,17.9,30.15,NW,321,2.0,8.0,34,0.00,,CLR,0.00,VWS V14.01,2013-02-17 21:00:00,
2013-02-17 16:06:00,44.7,18.1,30.15,NW,313,2.0,6.0,34,0.00,,CLR,0.00,VWS V14.01,2013-02-17 21:06:00,
2013-02-17 16:15:00,45.0,18.3,30.15,NNW,329,1.0,6.0,34,0.00,,CLR,0.00,VWS V14.01,2013-02-17 21:15:00,
2013-02-17 16:20:00,45.0,18.3,30.15,SSW,202,1.0,4.0,34,0.00,,CLR,0.00,VWS V14.01,2013-02-17 21:20:00,
2013-02-17 16:30:00,45.0,17.6,30.15,NW,326,0.0,6.0,33,0.00,,CLR,0.00,VWS V14.01,2013-02-17 21:30:00,
2013-02-17 16:35:00,45.0,18.3,30.15,NW,318,1.0,5.0,34,0.00,,CLR,0.00,VWS V14.01,2013-02-17 21:35:00,
2013-02-17 16:45:00,45.0,18.3,30.15,NW,311,0.0,6.0,34,0.00,,CLR,0.00,VWS V14.01,2013-02-17 21:45:00,
2013-02-17 16:50:00,45.0,19.0,30.16,West,270,0.0,7.0,35,0.00,,CLR,0.00,VWS V14.01,2013-02-17 21:50:00,
2013-02-17 17:00:00,45.0,18.3,30.16,NW,307,0.0,7.0,34,0.00,,CLR,0.00,VWS V14.01,2013-02-17 22:00:00,
2013-02-17 17:05:00,44.8,18.8,30.16,WSW,249,0.0,8.0,35,0.00,,CLR,0.00,VWS V14.01,2013-02-17 22:05:00,
2013-02-17 17:15:00,44.4,19.1,30.16,NW,307,0.0,8.0,36,0.00,,CLR,0.00,VWS V14.01,2013-02-17 22:15:00,
2013-02-17 17:20:00,44.2,20.8,30.16,WSW,250,2.0,4.0,39,0.00,,CLR,0.00,VWS V14.01,2013-02-17 22:20:00,
2013-02-17 17:30:00,43.8,19.2,30.16,WNW,286,0.0,4.0,37,0.00,,CLR,0.00,VWS V14.01,2013-02-17 22:30:00,
2013-02-17 17:35:00,43.7,19.1,30.17,WNW,286,0.0,1.0,37,0.00,,CLR,0.00,VWS V14.01,2013-02-17 22:35:00,
2013-02-17 17:45:00,43.2,19.9,30.17,NNW,348,0.0,2.0,39,0.00,,CLR,0.00,VWS V14.01,2013-02-17 22:45:00,
2013-02-17 17:50:00,42.9,19.1,30.17,NNW,348,0.0,0.0,38,0.00,,CLR,0.00,VWS V14.01,2013-02-17 22:50:00,
2013-02-17 17:55:00,42.6,20.0,30.17,NNW,348,0.0,0.0,40,0.00,,CLR,0.00,VWS V14.01,2013-02-17 22:55:00,
2013-02-17 18:00:00,42.3,20.3,30.17,NNW,348,0.0,0.0,41,0.00,,CLR,0.00,VWS V14.01,2013-02-17 23:00:00,
2013-02-17 18:10:00,41.4,21.1,30.17,NNW,348,0.0,0.0,44,0.00,,CLR,0.00,VWS V14.01,2013-02-17 23:10:00,
2013-02-17 18:15:00,40.9,21.7,30.17,NNW,348,0.0,0.0,46,0.00,,CLR,0.00,VWS V14.01,2013-02-17 23:15:00,
2013-02-17 18:25:00,40.0,20.4,30.18,NNW,348,0.0,0.0,45,0.00,,CLR,0.00,VWS V14.01,2013-02-17 23:25:00,
2013-02-17 18:30:00,35.7,24.7,30.20,NNW,348,0.0,0.0,64,0.00,,SCT070,0.00,VWS V14.01,2013-02-17 23:30:00,
2013-02-17 18:35:00,39.3,21.8,30.18,NNW,348,0.0,0.0,49,0.00,,CLR,0.00,VWS V14.01,2013-02-17 23:35:00,
2013-02-17 18:40:00,38.9,21.4,30.18,NNW,348,0.0,0.0,49,0.00,,CLR,0.00,VWS V14.01,2013-02-17 23:40:00,
2013-02-17 18:45:00,34.7,24.1,30.21,NNW,348,0.0,0.0,65,0.00,,SCT070,0.00,VWS V14.01,2013-02-17 23:45:00,
2013-02-17 18:50:00,38.1,23.8,30.19,NNW,348,0.0,0.0,56,0.00,,CLR,0.00,VWS V14.01,2013-02-17 23:50:00,
2013-02-17 19:00:00,37.4,22.3,30.19,NNW,348,0.0,0.0,54,0.00,,CLR,0.00,VWS V14.01,2013-02-18 00:00:00,
2013-02-17 19:05:00,37.2,23.4,30.20,NNW,348,0.0,0.0,57,0.00,,CLR,0.00,VWS V14.01,2013-02-18 00:05:00,
2013-02-17 19:15:00,36.5,23.1,30.20,NNW,348,0.0,0.0,58,0.00,,CLR,0.00,VWS V14.01,2013-02-18 00:15:00,
2013-02-17 19:20:00,36.2,24.1,30.20,NNW,348,0.0,0.0,61,0.00,,CLR,0.00,VWS V14.01,2013-02-18 00:20:00,
2013-02-17 19:30:00,35.7,24.7,30.20,NNW,348,0.0,0.0,64,0.00,,CLR,0.00,VWS V14.01,2013-02-18 00:30:00,
2013-02-17 19:40:00,35.2,24.6,30.21,NNW,348,0.0,0.0,65,0.00,,CLR,0.00,VWS V14.01,2013-02-18 00:40:00,
2013-02-17 19:45:00,34.8,24.2,30.21,NNW,348,0.0,0.0,65,0.00,,CLR,0.00,VWS V14.01,2013-02-18 00:45:00,
2013-02-17 19:50:00,34.4,24.6,30.21,NNW,348,0.0,0.0,67,0.00,,CLR,0.00,VWS V14.01,2013-02-18 00:50:00,
2013-02-17 19:55:00,34.1,23.2,30.22,NNW,348,0.0,0.0,64,0.00,,CLR,0.00,VWS V14.01,2013-02-18 00:55:00,
2013-02-17 20:00:00,33.7,22.8,30.22,NNW,348,0.0,0.0,64,0.00,,CLR,0.00,VWS V14.01,2013-02-18 01:00:00,
2013-02-17 20:10:00,33.4,22.9,30.22,NNW,348,0.0,0.0,65,0.00,,CLR,0.00,VWS V14.01,2013-02-18 01:10:00,
2013-02-17 20:15:00,33.3,23.2,30.22,NNW,348,0.0,0.0,66,0.00,,CLR,0.00,VWS V14.01,2013-02-18 01:15:00,
2013-02-17 20:25:00,33.2,23.8,30.23,NNW,348,0.0,0.0,68,0.00,,CLR,0.00,VWS V14.01,2013-02-18 01:25:00,
2013-02-17 20:30:00,33.1,24.4,30.22,NNW,348,0.0,0.0,70,0.00,,CLR,0.00,VWS V14.01,2013-02-18 01:30:00,
2013-02-17 20:34:00,33.0,24.3,30.22,NNW,348,0.0,0.0,70,0.00,,CLR,0.00,VWS V14.01,2013-02-18 01:34:00,
2013-02-17 20:44:00,32.7,24.0,30.23,NNW,348,0.0,0.0,70,0.00,,CLR,0.00,VWS V14.01,2013-02-18 01:44:00,
2013-02-17 20:45:00,31.9,23.9,30.25,NNW,348,0.0,0.0,72,0.00,,SCT070,0.00,VWS V14.01,2013-02-18 01:45:00,
2013-02-17 20:49:00,32.6,25.6,30.23,NNW,348,0.0,0.0,75,0.00,,CLR,0.00,VWS V14.01,2013-02-18 01:49:00,
2013-02-17 20:59:00,32.4,24.7,30.23,NNW,348,0.0,0.0,73,0.00,,CLR,0.00,VWS V14.01,2013-02-18 01:59:00,
2013-02-17 21:00:00,31.9,22.5,30.25,NNW,348,0.0,0.0,68,0.00,,SCT070,0.00,VWS V14.01,2013-02-18 02:00:00,
2013-02-17 21:09:00,32.3,24.3,30.24,NNW,348,0.0,0.0,72,0.00,,CLR,0.00,VWS V14.01,2013-02-18 02:09:00,
2013-02-17 21:14:00,32.3,25.0,30.24,NNW,348,0.0,0.0,74,0.00,,CLR,0.00,VWS V14.01,2013-02-18 02:14:00,
2013-02-17 21:15:00,31.7,25.0,30.25,NNW,348,0.0,0.0,76,0.00,,SCT070,0.00,VWS V14.01,2013-02-18 02:15:00,
2013-02-17 21:24:00,32.1,25.1,30.24,NNW,348,0.0,0.0,75,0.00,,CLR,0.00,VWS V14.01,2013-02-18 02:24:00,
2013-02-17 21:29:00,32.0,25.3,30.24,NNW,348,0.0,0.0,76,0.00,,CLR,0.00,VWS V14.01,2013-02-18 02:29:00,
2013-02-17 21:30:00,31.1,24.1,30.25,NNW,348,0.0,0.0,75,0.00,,SCT070,0.00,VWS V14.01,2013-02-18 02:30:00,
2013-02-17 21:34:00,31.9,23.9,30.24,NNW,348,0.0,0.0,72,0.00,,CLR,0.00,VWS V14.01,2013-02-18 02:34:00,
2013-02-17 21:39:00,31.8,23.1,30.25,NNW,348,0.0,0.0,70,0.00,,CLR,0.00,VWS V14.01,2013-02-18 02:39:00,
2013-02-17 21:44:00,31.9,23.6,30.25,NNW,348,0.0,0.0,71,0.00,,CLR,0.00,VWS V14.01,2013-02-18 02:44:00,
2013-02-17 21:45:00,30.8,23.2,30.26,NNW,348,0.0,0.0,73,0.00,,SCT070,0.00,VWS V14.01,2013-02-18 02:45:00,
2013-02-17 21:49:00,32.0,23.7,30.25,NNW,348,0.0,0.0,71,0.00,,CLR,0.00,VWS V14.01,2013-02-18 02:49:00,
2013-02-17 21:54:00,32.0,25.3,30.25,NNW,348,0.0,0.0,76,0.00,,CLR,0.00,VWS V14.01,2013-02-18 02:54:00,
2013-02-17 21:59:00,31.9,22.5,30.25,NNW,348,0.0,0.0,68,0.00,,CLR,0.00,VWS V14.01,2013-02-18 02:59:00,
2013-02-17 22:00:00,30.8,24.5,30.26,NNW,348,0.0,0.0,77,0.00,,SCT070,0.00,VWS V14.01,2013-02-18 03:00:00,
2013-02-17 22:04:00,31.9,23.6,30.25,NNW,348,0.0,0.0,71,0.00,,CLR,0.00,VWS V14.01,2013-02-18 03:04:00,
2013-02-17 22:14:00,31.7,24.7,30.25,NNW,348,0.0,0.0,75,0.00,,CLR,0.00,VWS V14.01,2013-02-18 03:14:00,
2013-02-17 22:15:00,30.8,22.9,30.26,NNW,348,0.0,0.0,72,0.00,,SCT070,0.00,VWS V14.01,2013-02-18 03:15:00,
2013-02-17 22:19:00,31.6,25.5,30.25,NNW,348,0.0,0.0,78,0.00,,CLR,0.00,VWS V14.01,2013-02-18 03:19:00,
2013-02-17 22:24:00,31.4,25.6,30.25,NNW,348,0.0,0.0,79,0.00,,CLR,0.00,VWS V14.01,2013-02-18 03:24:00,
2013-02-17 22:29:00,31.1,24.4,30.25,NNW,348,0.0,0.0,76,0.00,,CLR,0.00,VWS V14.01,2013-02-18 03:29:00,
2013-02-17 22:30:00,30.8,22.9,30.26,NNW,348,0.0,0.0,72,0.00,,SCT070,0.00,VWS V14.01,2013-02-18 03:30:00,
2013-02-17 22:39:00,30.9,24.5,30.25,NNW,348,0.0,0.0,77,0.00,,CLR,0.00,VWS V14.01,2013-02-18 03:39:00,
2013-02-17 22:44:00,30.8,23.5,30.26,NNW,348,0.0,0.0,74,0.00,,CLR,0.00,VWS V14.01,2013-02-18 03:44:00,
2013-02-17 22:45:00,30.8,22.5,30.27,NNW,348,0.0,0.0,71,0.00,,SCT070,0.00,VWS V14.01,2013-02-18 03:45:00,
2013-02-17 22:54:00,30.8,23.5,30.26,NNW,348,0.0,0.0,74,0.00,,CLR,0.00,VWS V14.01,2013-02-18 03:54:00,
2013-02-17 23:00:00,30.8,24.5,30.26,NNW,348,0.0,0.0,77,0.00,,CLR,0.00,VWS V14.01,2013-02-18 04:00:00,
2013-02-17 23:09:00,30.8,23.5,30.26,NNW,348,0.0,0.0,74,0.00,,CLR,0.00,VWS V14.01,2013-02-18 04:09:00,
2013-02-17 23:15:00,30.8,22.9,30.26,NNW,348,0.0,0.0,72,0.00,,CLR,0.00,VWS V14.01,2013-02-18 04:15:00,
2013-02-17 23:24:00,30.8,23.8,30.27,NNW,348,0.0,0.0,75,0.00,,CLR,0.00,VWS V14.01,2013-02-18 04:24:00,
2013-02-17 23:29:00,30.7,22.4,30.26,NNW,348,0.0,0.0,71,0.00,,CLR,0.00,VWS V14.01,2013-02-18 04:29:00,
2013-02-17 23:30:00,31.2,22.9,30.27,NNW,348,0.0,0.0,71,0.00,,SCT070,0.00,VWS V14.01,2013-02-18 04:30:00,
2013-02-17 23:39:00,30.8,23.8,30.26,NNW,348,0.0,0.0,75,0.00,,CLR,0.00,VWS V14.01,2013-02-18 04:39:00,
2013-02-17 23:45:00,30.8,22.5,30.27,NNW,348,0.0,0.0,71,0.00,,CLR,0.00,VWS V14.01,2013-02-18 04:45:00,
2013-02-17 23:54:00,31.0,22.7,30.27,NNW,348,0.0,0.0,71,0.00,,CLR,0.00,VWS V14.01,2013-02-18 04:54:00,